Temp
55 53 52 52 52 52 51 52 54 54 55 55 55 54 54 56 55 53 52 53 54 54
59 54 53 54 53 53 54 56 56 55 55 55 56 56 55 55 55 56 54 53 55 53
58 56 55 54 54 53 54 54 54 55 55 55 56 56 55 54 54 54 54 56 55 56
55 56 55 54 55 57 54 54 56 56 59 56 55 55 55 54 57 55 54 55 55 55
55 55 55 54 55 55 54 54 59 58 56 60 56 59 55 57 56 57 57 58 54 54
55 54 56 55 55 56 58 59 56 56 56 56 58 56 57 56 59 58 59 55 54 54
55 54 57 58 56 56 61 60 59 55 59 59 55 58 57 58 58 58 56 56 55 55
58 56 59 60 60 59 57 60 60 59 57 54 55 56 51 56 56 54 55 56 57 55
61 60 59 60 60 58 58 56 60 59 55 52 57 51 52 54 53 56 58 58 56 56
61 61 60 57 58 56 55 56 55 56 57 52 50 50 51 53 56 54 54 57 59 61
62 61 61 57 55 54 55 54 53 55 55 52 53 52 50 51 56 56 57 59 57 54
59 58 59 57 55 54 53 53 58 58 59 58 53 51 51 51 51 57 57 61 61 57
61 61 58 59 56 54 54 54 55 56 56 59 54 51 51 51 52 55 57 54 55 54
61 57 56 57 58 56 56 55 53 54 54 54 55 54 49 50 52 51 53 58 58 57
MSLP
1023.51 1023.42 1023.31 1023.19 1022.96 1022.82 1022.60 1022.28 1021.67 1021.33 1020.97 1020.65 1020.30 1020.01 1019.74 1019.32 1019.13 1018.78 1018.54 1018.32 1018.06 1017.88
1023.29 1023.11 1023.04 1022.93 1022.78 1022.57 1022.39 1021.87 1021.49 1021.31 1020.97 1020.63 1020.34 1020.00 1019.72 1019.59 1019.14 1018.91 1018.68 1018.35 1018.17 1018.05
1023.12 1022.96 1022.91 1022.75 1022.61 1022.46 1022.17 1021.83 1021.66 1021.31 1020.99 1020.75 1020.42 1020.03 1019.84 1019.64 1019.35 1019.06 1018.99 1018.48 1018.46 1018.14
1023.06 1022.94 1022.85 1022.69 1022.49 1022.31 1022.10 1021.90 1021.64 1021.34 1021.04 1020.91 1020.60 1020.20 1019.97 1019.64 1019.37 1019.23 1019.04 1018.88 1018.84 1018.50
1022.95 1022.93 1022.77 1022.61 1022.42 1022.12 1022.10 1021.77 1021.35 1021.17 1021.06 1020.95 1020.69 1020.44 1020.18 1019.96 1019.67 1019.45 1019.32 1019.11 1019.03 1019.00
1022.88 1022.79 1022.50 1022.39 1022.26 1022.07 1021.85 1021.68 1021.35 1021.29 1021.19 1021.09 1021.01 1020.74 1020.42 1020.12 1019.99 1019.73 1019.60 1019.49 1019.41 1019.35
1022.61 1022.54 1022.23 1022.09 1022.10 1022.01 1021.64 1021.66 1021.55 1021.39 1021.23 1021.16 1021.15 1020.97 1020.81 1020.47 1020.00 1019.99 1019.95 1019.85 1019.79 1019.79
1022.31 1022.18 1022.02 1021.86 1021.85 1021.82 1021.74 1021.62 1021.51 1021.44 1021.50 1021.36 1021.31 1021.31 1021.12 1020.86 1020.62 1020.40 1020.29 1020.19 1020.12 1020.04
1021.89 1021.91 1021.83 1021.66 1021.63 1021.63 1021.59 1021.49 1021.41 1021.39 1021.59 1021.45 1021.57 1021.52 1021.28 1021.03 1020.78 1020.72 1020.36 1020.18 1020.09 1020.02
1021.68 1021.70 1021.43 1021.44 1021.41 1021.56 1021.45 1021.37 1021.31 1021.32 1021.37 1021.49 1021.55 1021.38 1021.20 1021.07 1020.83 1020.76 1020.51 1020.30 1020.04 1019.95
1021.49 1021.26 1021.15 1021.14 1021.18 1021.25 1021.22 1021.26 1021.28 1021.20 1021.19 1021.31 1021.38 1021.20 1021.15 1021.01 1020.80 1020.58 1020.31 1020.26 1020.08 1020.07
1021.16 1021.19 1021.14 1021.04 1020.99 1020.96 1020.98 1021.06 1020.88 1020.77 1020.84 1020.94 1020.99 1020.98 1020.95 1020.88 1020.79 1020.51 1020.11 1019.77 1019.77 1019.86
1020.75 1020.83 1020.84 1020.71 1020.82 1020.70 1020.68 1020.68 1020.49 1020.39 1020.27 1020.31 1020.47 1020.55 1020.63 1020.68 1020.69 1020.67 1020.40 1020.12 1020.01 1019.93
1020.67 1020.68 1020.50 1020.46 1020.26 1020.29 1020.28 1020.21 1020.24 1020.23 1020.11 1020.02 1020.02 1020.04 1020.26 1020.39 1020.43 1020.57 1020.58 1020.20 1020.13 1020.11
Wind_Speed
1 1 2 3 3 4 2 3 5 5 5 6 5 5 4 3 3 3 3 4 4 3
2 2 3 5 3 2 3 4 5 6 5 6 5 5 5 4 5 4 3 5 4 2
5 4 4 5 5 2 3 4 5 5 5 6 6 6 5 4 4 5 4 3 6 5
5 5 4 4 4 3 3 5 6 5 5 5 6 6 5 4 5 5 4 3 5 4
5 3 3 3 3 2 2 4 5 4 5 4 5 6 7 6 5 6 6 5 7 6
4 4 3 2 1 1 2 2 3 4 6 5 4 6 6 7 5 4 5 6 7 6
3 4 3 2 1 2 3 3 3 2 5 4 4 5 6 8 7 2 5 5 6 5
3 4 0 2 2 3 3 4 5 4 4 4 5 4 6 6 6 5 4 2 3 3
6 4 4 3 1 0 2 3 2 5 2 4 3 3 4 6 5 6 3 1 2 1
1 3 2 5 1 3 1 2 4 1 5 4 2 1 3 5 4 5 5 4 2 2
5 3 2 3 1 2 2 2 3 4 4 5 4 5 2 5 4 5 5 4 2 2
4 4 4 1 3 3 1 2 4 5 4 6 5 8 4 2 4 5 6 5 4 6
6 5 4 4 3 3 2 4 5 6 6 7 6 9 8 2 1 4 4 3 4 6
6 6 6 5 3 3 4 4 5 5 5 6 8 7 9 8 2 2 2 1 1 2
Wind_Direction
86 6 332 317 308 300 296 316 313 340 347 345 353 353 357 317 342 355 12 7 10 6
323 356 303 317 317 351 346 318 322 343 358 347 342 345 2 340 355 18 24 20 24 50
336 336 340 352 323 48 343 329 342 351 347 350 334 338 345 321 317 14 30 347 21 33
353 351 347 337 348 69 354 345 329 321 321 355 344 337 7 12 360 18 14 16 38 9
4 335 344 324 17 52 2 331 342 9 357 9 22 14 12 8 29 27 40 27 45 37
2 296 286 147 148 223 214 346 332 14 355 350 2 18 8 359 342 11 51 53 57 46
303 287 258 142 163 285 274 306 349 324 308 360 44 37 13 350 342 13 49 59 73 72
294 291 40 289 286 325 341 268 277 287 30 79 60 29 6 353 360 45 90 88 99 106
253 272 272 285 1 231 336 350 325 254 151 86 66 12 4 4 351 359 9 118 164 201
13 297 351 260 310 197 275 317 312 331 147 140 170 255 351 355 336 341 323 298 134 134
248 297 318 50 72 235 197 229 264 288 183 157 207 219 273 338 328 325 307 279 217 173
232 281 294 216 293 279 223 237 242 240 237 193 213 219 242 12 352 321 312 285 249 160
226 245 294 241 249 250 235 261 258 250 248 209 206 212 211 211 47 350 359 21 61 114
258 245 257 265 215 236 243 271 281 270 271 234 223 227 208 204 191 188 325 323 160 200